Location: Dana
(41.8364°N, 106.7042°W)
Time: 20:46:50
(UTC+00:00)

Tiros 1 despin weight - Pass Details

Date: 12 May 2026
Orbit: 555 x 591 km, 48.2° (Epoch: 1 June)

Event Time Altitude Azimuth Distance (km) Brightness Sun altitude
Rises 15:15:32 0° 273° (W) 2,739 ? 36.5°
Reaches altitude 10° 15:17:56 10° 282° (WNW) 1,840 ? 37.0°
Maximum altitude 15:21:50 37° 351° (N) 877 ? 37.7°
Drops below altitude 10° 15:25:44 10° 59° (ENE) 1,835 ? 38.4°
Sets 15:28:07 0° 68° (ENE) 2,730 ? 38.8°
